Glenwood, MN

9:56 AM CST on January 16, 2018 (GMT -0600)
Glenwood Municipal

Weather History for KGHW - June, 2013

Change the Weather History Date:

Thursday, June 6, 2013

  Actual Average Record
Temperature  
Mean Temperature 52 °F -  
Max Temperature 57 °F 77 °F 94 °F (1950)
Min Temperature 48 °F 52 °F 36 °F (1983)
Degree Days  
Heating Degree Days 12    
Growing Degree Days 2 (Base 50)    
Moisture  
Dew Point 48 °F    
Average Humidity 85    
Maximum Humidity 100    
Minimum Humidity 72    
Precipitation  
Precipitation 0.00 in - - ()
Sea Level Pressure  
Sea Level Pressure 30.04 in    
Wind  
Wind Speed 8 mph (NE)    
Max Wind Speed 12 mph    
Max Gust Speed -    
Visibility 10 miles    
Events      
Averages and records for this station are not official NWS values.
T = Trace of Precipitation, MM = Missing Value Source: NWS Daily Summary

Daily Weather History Graph

Daily Weather History Graph

Search for Another Location

Airport or City:

Trip Planner

Search our weather history database for the weather conditions in past years. The results will help you decide how hot, cold, wet, or windy it might be!

Date:

Astronomy

Jun. 06, 2013 Rise Set
Actual Time 5:32 AM CDT 9:07 PM CDT
Civil Twilight 4:55 AM CDT 9:45 PM CDT
Nautical Twilight 4:05 AM CDT 10:34 PM CDT
Astronomical Twilight 2:59 AM CDT 11:41 PM CDT
Moon 4:20 AM CDT (6/6) 7:25 PM CDT (6/6)
Length of Visible Light 16h 49m
Length of Day
15h 34m
Waning Crescent, 3% of the Moon is Illuminated
Jun 6
Waning Crescent
Jun 8
New
Jun 16
First Quarter
Jun 23
Full
Jun 29
Last Quarter

Hourly Weather History & Observations

Time (CDT) Temp. Dew Point Humidity Pressure Visibility Wind Dir Wind Speed Gust Speed Precip Events Conditions
12:13 AM 51.8 °F 48.2 °F 88% 30.03 in 10.0 mi ENE 9.2 mph - N/A   Overcast
12:34 AM 51.8 °F 48.2 °F 88% 30.03 in 10.0 mi NE 11.5 mph - N/A   Overcast
12:53 AM 51.8 °F 48.2 °F 88% 30.03 in 10.0 mi NE 9.2 mph - N/A   Overcast
1:13 AM 51.8 °F 48.2 °F 88% 30.02 in 10.0 mi NE 10.4 mph - N/A   Overcast
1:33 AM 51.8 °F 48.2 °F 88% 30.02 in 10.0 mi NE 9.2 mph - N/A   Overcast
1:53 AM 51.8 °F 48.2 °F 88% 30.02 in 10.0 mi NE 9.2 mph - N/A   Overcast
2:13 AM 50.0 °F 48.2 °F 94% 30.03 in 10.0 mi NNE 10.4 mph - N/A   Overcast
2:33 AM 50.0 °F 48.2 °F 94% 30.03 in 10.0 mi NE 8.1 mph - N/A   Overcast
2:53 AM 50.0 °F 48.2 °F 94% 30.02 in 10.0 mi NE 8.1 mph - N/A   Overcast
3:13 AM 50.0 °F 48.2 °F 94% 30.02 in 10.0 mi North 5.8 mph - N/A   Overcast
3:33 AM 50.0 °F 48.2 °F 94% 30.02 in 10.0 mi NNE 6.9 mph - N/A   Overcast
3:53 AM 50.0 °F 48.2 °F 94% 30.01 in 10.0 mi North 6.9 mph - N/A   Overcast
4:14 AM 50.0 °F 48.2 °F 94% 30.02 in 10.0 mi NNE 10.4 mph - N/A   Overcast
4:33 AM 48.2 °F 46.4 °F 93% 30.02 in 10.0 mi NE 11.5 mph - N/A   Overcast
4:53 AM 50.0 °F 48.2 °F 94% 30.02 in 10.0 mi NNE 10.4 mph - N/A   Overcast
5:13 AM 48.2 °F 48.2 °F 100% 30.02 in 7.0 mi NE 9.2 mph - N/A   Overcast
5:33 AM 48.2 °F 48.2 °F 100% 30.02 in 7.0 mi NNE 9.2 mph - N/A   Overcast
5:53 AM 48.2 °F 46.4 °F 93% 30.02 in 5.0 mi NE 9.2 mph - N/A   Overcast
6:14 AM 48.2 °F 48.2 °F 100% 30.02 in 7.0 mi NNE 10.4 mph - N/A   Overcast
6:33 AM 48.2 °F 46.4 °F 93% 30.03 in 10.0 mi North 8.1 mph - N/A   Overcast
6:53 AM 48.2 °F 46.4 °F 93% 30.03 in 10.0 mi North 8.1 mph - N/A   Overcast
7:14 AM 48.2 °F 46.4 °F 93% 30.04 in 10.0 mi NNE 4.6 mph - N/A   Overcast
7:33 AM 48.2 °F 46.4 °F 93% 30.04 in 10.0 mi NNE 6.9 mph - N/A   Overcast
7:53 AM 48.2 °F 46.4 °F 93% 30.04 in 10.0 mi NNE 8.1 mph - N/A   Overcast
8:14 AM 48.2 °F 46.4 °F 93% 30.04 in 10.0 mi NNE 5.8 mph - N/A   Overcast
8:33 AM 50.0 °F 46.4 °F 87% 30.03 in 10.0 mi North 5.8 mph - N/A   Overcast
8:53 AM 51.8 °F 46.4 °F 82% 30.04 in 10.0 mi NNE 8.1 mph - N/A   Overcast
9:14 AM 51.8 °F 46.4 °F 82% 30.04 in 10.0 mi North 8.1 mph - N/A   Overcast
9:33 AM 51.8 °F 46.4 °F 82% 30.04 in 10.0 mi North 6.9 mph - N/A   Overcast
9:53 AM 51.8 °F 48.2 °F 88% 30.04 in 10.0 mi North 8.1 mph - N/A   Overcast
10:13 AM 51.8 °F 48.2 °F 88% 30.04 in 10.0 mi NNE 9.2 mph - N/A   Overcast
10:33 AM 53.6 °F 48.2 °F 82% 30.04 in 10.0 mi North 9.2 mph - N/A   Overcast
10:53 AM 55.4 °F 48.2 °F 77% 30.04 in 10.0 mi NNE 6.9 mph - N/A   Mostly Cloudy
11:13 AM 53.6 °F 48.2 °F 82% 30.04 in 10.0 mi North 5.8 mph - N/A   Overcast
11:33 AM 55.4 °F 48.2 °F 77% 30.05 in 10.0 mi NE 6.9 mph - N/A   Overcast
11:53 AM 55.4 °F 50.0 °F 82% 30.05 in 10.0 mi ENE 10.4 mph - N/A   Overcast
12:14 PM 55.4 °F 50.0 °F 82% 30.05 in 10.0 mi ENE 9.2 mph - N/A   Overcast
12:33 PM 55.4 °F 50.0 °F 82% 30.05 in 10.0 mi NE 9.2 mph - N/A   Overcast
12:53 PM 57.2 °F 50.0 °F 77% 30.05 in 10.0 mi NE 10.4 mph - N/A   Overcast
1:13 PM 57.2 °F 51.8 °F 82% 30.05 in 10.0 mi ENE 9.2 mph - N/A   Overcast
1:33 PM 55.4 °F 50.0 °F 82% 30.05 in 10.0 mi NNE 11.5 mph - N/A   Overcast
1:53 PM 57.2 °F 50.0 °F 77% 30.05 in 10.0 mi ENE 8.1 mph - N/A   Overcast
2:13 PM 57.2 °F 51.8 °F 82% 30.05 in 10.0 mi NE 8.1 mph - N/A   Overcast
2:33 PM 57.2 °F 51.8 °F 82% 30.04 in 10.0 mi NE 10.4 mph - N/A   Overcast
2:54 PM 57.2 °F 50.0 °F 77% 30.04 in 10.0 mi NNE 10.4 mph - N/A   Overcast
3:13 PM 57.2 °F 51.8 °F 82% 30.04 in 10.0 mi NE 9.2 mph - N/A   Overcast
3:33 PM 57.2 °F 50.0 °F 77% 30.04 in 10.0 mi NNE 8.1 mph - N/A   Overcast
3:53 PM 57.2 °F 50.0 °F 77% 30.05 in 10.0 mi North 9.2 mph - N/A   Overcast
4:13 PM 57.2 °F 48.2 °F 72% 30.04 in 10.0 mi North 5.8 mph - N/A   Overcast
4:33 PM 57.2 °F 50.0 °F 77% 30.04 in 10.0 mi NNE 6.9 mph - N/A   Overcast
4:54 PM 57.2 °F 50.0 °F 77% 30.05 in 10.0 mi NNE 8.1 mph - N/A   Overcast
5:13 PM 57.2 °F 50.0 °F 77% 30.05 in 10.0 mi NE 10.4 mph - N/A   Overcast
5:33 PM 55.4 °F 50.0 °F 82% 30.05 in 10.0 mi NNE 8.1 mph - N/A   Overcast
5:53 PM 55.4 °F 50.0 °F 82% 30.05 in 10.0 mi NNE 10.4 mph - N/A   Overcast
6:13 PM 55.4 °F 50.0 °F 82% 30.04 in 10.0 mi NNE 9.2 mph - N/A   Overcast
6:33 PM 55.4 °F 48.2 °F 77% 30.05 in 10.0 mi NE 9.2 mph - N/A   Overcast
6:53 PM 55.4 °F 48.2 °F 77% 30.05 in 10.0 mi ENE 8.1 mph - N/A   Overcast
7:13 PM 55.4 °F 48.2 °F 77% 30.05 in 10.0 mi ENE 6.9 mph - N/A   Overcast
7:33 PM 55.4 °F 48.2 °F 77% 30.05 in 10.0 mi NE 8.1 mph - N/A   Overcast
7:53 PM 55.4 °F 48.2 °F 77% 30.06 in 10.0 mi NE 8.1 mph - N/A   Overcast
8:13 PM 55.4 °F 48.2 °F 77% 30.06 in 10.0 mi ENE 10.4 mph - N/A   Overcast
8:34 PM 53.6 °F 48.2 °F 82% 30.06 in 10.0 mi ENE 6.9 mph - N/A   Overcast
8:53 PM 53.6 °F 48.2 °F 82% 30.06 in 10.0 mi ENE 9.2 mph - N/A   Overcast
9:13 PM 53.6 °F 48.2 °F 82% 30.06 in 10.0 mi ENE 5.8 mph - N/A   Overcast
9:33 PM 53.6 °F 48.2 °F 82% 30.06 in 10.0 mi ENE 3.5 mph - N/A   Overcast
9:53 PM 53.6 °F 48.2 °F 82% 30.07 in 10.0 mi Calm Calm - N/A   Overcast
10:13 PM 53.6 °F 48.2 °F 82% 30.07 in 10.0 mi NNE 3.5 mph - N/A   Overcast
10:34 PM 51.8 °F 48.2 °F 88% 30.07 in 10.0 mi NNE 4.6 mph - N/A   Overcast
10:53 PM 51.8 °F 48.2 °F 88% 30.07 in 10.0 mi NE 3.5 mph - N/A   Overcast
11:13 PM 51.8 °F 48.2 °F 88% 30.07 in 10.0 mi NE 3.5 mph - N/A   Overcast
11:34 PM 51.8 °F 48.2 °F 88% 30.07 in 10.0 mi NE 3.5 mph - N/A   Overcast
11:53 PM 51.8 °F 48.2 °F 88% 30.07 in 10.0 mi Calm Calm - N/A   Overcast